#timestamp,LO_Frequency,Hit,StdDev 
1578927615.9,286047003.5,N
1578927635.7,286047002.9,N
1578927655.6,286047003.9,N
1578927675.4,286047003.5,N
1578927695.3,286047001.4,N
1578927715.1,286047004.2,Y
1578927716.0,286047004.2,P
1578927735.8,286047003.6,N
1578927755.7,286047004.5,P
1578927775.5,286047007.5,Y
1578927795.4,286047003.8,P
1578927815.2,286047002.5,P
1578927835.0,286047002.1,P
1578927835.9,286047002.1,Y
1578927855.8,286046999.1,P
1578927875.6,286046999.6,N
1578927895.4,286046998.6,N
1578927915.3,286046997.1,N
1578927935.1,286046997.1,N
1578927955.9,286046998.3,N
1578927975.7,286046999.1,N
1578927995.5,286046995.4,N
1578928015.4,286046994.9,N
1578928035.2,286046996.6,N
1578928055.0,286046997.2,N
1578928055.9,286046997.2,N
1578928075.8,286046998.5,N
1578928095.6,286046996.7,N
1578928115.5,286046997.3,N
1578928135.3,286046999.6,N
1578928155.1,286046999.6,N
1578928175.9,286046998.8,N
1578928195.7,286046998.3,N
1578928215.5,286046998.3,N
1578928235.4,286047000.9,N
1578928255.2,286046998.1,N
1578928275.1,286046999.4,N
1578928276.0,286046999.4,N
1578928295.8,286047000.2,N
1578928315.6,286047002.5,N
1578928335.5,286047000.3,N
1578928355.3,286046998.2,N
1578928375.1,286046998.2,N
1578928395.9,286046998.7,N
1578928415.7,286047000.7,N
1578928435.6,286047002.4,N
1578928455.4,286047002.0,N
1578928475.2,286047000.8,N
1578928495.1,286046998.7,N
1578928496.0,286046998.7,N
1578928515.8,286046999.1,N
1578928535.7,286047001.1,N
1578928555.5,286047002.2,N
1578928575.3,286047002.4,N
1578928595.2,286047000.4,N
1578928615.9,286046998.1,N
1578928635.7,286046998.3,N
1578928655.6,286046998.3,N
1578928675.4,286046998.2,N
1578928695.3,286046999.2,N
1578928715.1,286046997.7,N
1578928716.0,286046997.7,N
1578928735.8,286046996.9,N
1578928755.7,286046998.2,N
1578928775.5,286046996.8,N
1578928795.3,286046997.4,N
1578928815.2,286046997.4,N
1578928835.0,286046997.5,N
1578928835.9,286046997.5,N
1578928855.8,286046999.2,N
1578928875.6,286046998.4,N
1578928895.4,286046998.7,N
1578928915.3,286047001.0,N
1578928935.1,286047002.5,N
1578928955.9,286046998.6,N
1578928975.7,286046999.3,N
1578928995.5,286046999.0,N
1578929015.4,286046999.1,N
1578929035.2,286046998.1,N
1578929055.0,286047000.9,N
1578929055.9,286047000.9,N
1578929075.8,286046998.6,N
1578929095.6,286047000.6,N
1578929115.5,286046998.5,N
1578929135.3,286046999.5,N
1578929155.1,286047000.3,N
1578929175.9,286047000.6,N
1578929195.7,286047000.0,N
1578929215.5,286047002.6,N
1578929235.4,286047001.6,N
1578929255.2,286047001.8,N
1578929275.1,286047003.0,N
1578929276.0,286047003.0,N
1578929295.8,286047002.4,N
1578929345.7,286046999.2,E
1578929355.6,286046998.4,N
1578929375.4,286047002.8,P
1578929395.3,286047000.7,N
1578929415.1,286047002.8,N
1578929435.8,286047001.9,N
1578929455.7,286047000.0,N
1578929475.5,286047000.0,N
1578929495.4,286047000.1,N
1578929515.2,286047002.8,N
1578929535.0,286047001.8,N
1578929535.9,286047001.8,N
1578929555.8,286047004.3,Y
1578929575.6,286047001.4,P
1578929595.5,286047003.8,P
1578929615.3,286047003.5,N
1578929635.1,286047004.3,Y
1578929655.9,286047003.9,P
1578929675.7,286046998.1,N
1578929695.5,286046999.5,N
1578929715.4,286046999.5,N
1578929735.2,286046998.7,N
1578929755.1,286046999.2,N
1578929756.0,286046999.2,N
1578929775.8,286046997.9,N
1578929795.6,286046996.5,N
1578929815.5,286046999.5,N
1578929835.3,286046996.1,N
1578929855.1,286046996.7,N
1578929875.9,286046995.0,N
1578929895.7,286046994.9,N
1578929915.6,286046997.4,N
1578929935.4,286046997.7,N
1578929955.2,286046999.1,N
1578929975.1,286046998.4,N
1578929976.0,286046998.4,N
1578929995.8,286046996.5,N
1578930015.7,286046997.6,N
1578930035.5,286046995.1,N
1578930055.3,286046997.1,N
1578930075.2,286046999.2,N
1578930095.9,286046998.8,N
1578930115.7,286046998.5,N
1578930135.8,286046997.2,N
1578930155.7,286046999.2,N
1578930175.5,286046999.9,N
1578930195.3,286046998.4,N
1578930215.2,286046999.4,N
1578930235.0,286047000.5,N
1578930235.9,286047000.5,N
1578930255.8,286047000.9,N
1578930275.6,286046999.9,N
1578930295.4,286047000.7,N
1578930315.3,286047002.2,N
1578930335.1,286047002.8,N
1578930355.8,286047000.5,N
1578930375.7,286047000.9,N
1578930395.5,286046998.6,N
1578930415.4,286046998.6,N
1578930435.2,286047001.2,N
1578930455.0,286047000.3,N
1578930455.9,286047000.3,N
1578930475.8,286047000.4,N
1578930495.6,286046998.9,N
1578930515.4,286046999.8,N
1578930535.3,286046999.9,N
1578930585.2,286047001.1,E
1578930595.1,286046999.3,N
1578930596.0,286046999.3,P
1578930615.8,286046999.2,P
1578930635.7,286046998.3,Y
1578930655.5,286047001.2,P
1578930675.3,286047000.7,N
1578930695.2,286046998.7,N
1578930715.0,286046997.3,N
1578930715.9,286046997.3,N
1578930735.7,286046997.5,N
1578930755.6,286046996.0,N
1578930775.4,286046994.2,Y
1578930795.3,286046995.4,P
1578930815.1,286046997.5,N
1578930835.8,286046997.9,N
1578930855.7,286046997.2,N
1578930875.5,286047001.1,N
1578930895.4,286046999.8,N
1578930915.2,286047003.5,N
1578930935.0,286047004.3,N
1578930935.9,286047004.3,N
1578930955.8,286047005.1,N
1578930975.6,286047007.6,N
1578930995.5,286047004.1,N
1578931015.3,286047002.6,N
1578931035.1,286047004.3,N
1578931055.9,286047003.8,N
1578931075.7,286047001.8,N
1578931095.6,286047001.8,N
1578931115.4,286047001.9,N
1578931135.2,286047001.2,N
1578931155.1,286046998.6,N
1578931156.0,286046998.6,N
1578931175.8,286047002.3,N
1578931195.6,286047002.8,N
